www.pogodaiklimat.ru

Погода и климат >> Архив погоды >> Россия >> Красноярский край >> Курейка


ПОГОДА в Курейке

  • Прогноз погоды в Курейке
  • Монитор погоды в Курейке

АРХИВ ПОГОДЫ в Курейке

Время (UTC), дата Ветер
(напр.,м/с)
 
Видим.   Явления Облачность Т
(С)
Тd
(С)
f
(%)
Тe
(С)
Тes
(С)
Комфортность P
(гПа)
Po
(гПа)
Тmin
(С)
Tmax
(С)
R
(мм)
R24
(мм)
S
(см)
12 15.01 Ю 4
{10}
10 км слаб. ливневой снег {метель} 10/10 600 м
[Cb cap]
-10.6 -12.6 85 -18 -18 998.7 995.1 -10.3 2
15 15.01 Ю 4 10 км слаб. ливневой снег {метель} 10/8 600 м
[Cb cap Ci fib]
-11.0 -13.0 85 -18 -18 997.7 994.1
18 15.01 Ю 4 10 км слаб. снег 10/8 600 м
[Sc As op]
-11.4 -13.4 85 -18 -18 997.5 993.9
21 15.01 ЮЗ 4 10 км слаб. снег {метель} 10/10 600 м
[Sc]
-11.6 -13.6 85 -19 -19 997.9 994.3
00 16.01 З 5 50 км позёмок 2 балла -14.5 -17.2 80 -23 -23 1001.0 997.3 -14.5 1
03 16.01 ЮЗ 3 50 км 7 баллов -14.4 -17.1 80 -21 -21 1006.4 1002.7
06 16.01 Ю 2 20 км слаб. снег 10 баллов -15.8 -18.4 80 -21 -21 1007.7 1004.0
09 16.01 ЮВ 2 10 км слаб. снег 10 баллов -16.5 -19.1 80 -22 -22 1009.1 1005.3
12 16.01 Ю 1 10 км слаб. снег 10 баллов -16.7 -19.3 80 -19 -19 1009.1 1005.3 -14.2 0.7
15 16.01 штиль 0 50 км 10 баллов -16.9 -19.5 80 -17 -17 1009.1 1005.3
18 16.01 ЮВ 2 10 км слаб. снег 10 баллов -17.4 -20.0 80 -23 -23 1010.5 1006.7
21 16.01 ЮЗ 1 10 км слаб. снег 10 баллов -17.5 -20.1 80 -20 -20 1010.5 1006.7
00 17.01 ЮЗ 1 10 км слаб. снег 10 баллов -17.0 -19.6 80 -20 -20 1011.8 1008.0 -17.8 1
03 17.01 ЮЗ 1 50 км 10 баллов -17.5 -19.4 85 -20 -20 1014.5 1010.7 -17.5
06 17.01 З 2 50 км 2 балла -21.0 -22.8 85 -27 -27 1017.2 1013.3
09 17.01 ЮЗ 1 50 км 7 баллов -23.5 -25.4 84 -27 -27 1019.9 1016.0
12 17.01 В 1 50 км 10 баллов -24.0 -25.9 84 -27 -27 1021.2 1017.3 -17.0 0.0
15 17.01 В 3 50 км 10 баллов -22.5 -25.0 80 -31 -31 опасность
обморожения
1021.2 1017.3
18 17.01 ЮВ 3 50 км 10 баллов -24.1 -26.7 79 -33 -33 опасность
обморожения
1018.6 1014.7
21 17.01 Ю 5 10 км слаб. снег 10 баллов -18.2 -20.8 80 -28 -28 1015.8 1012.0
00 18.01 Ю 5 10 км слаб. ливневой снег 10 баллов -14.3 -16.3 85 -23 -23 1013.0 1009.3 -24.1 0.6
03 18.01 ЮВ 6 10 км слаб. ливневой снег 10 баллов -13.9 -15.9 85 -23 -23 1011.7 1008.0
06 18.01 Ю 7 10 км слаб. снег 10 баллов -12.4 -15.1 80 -22 -22 1007.7 1004.0
09 18.01 Ю 5-10
{12}
10 км слаб. снег {метель} 10/10 600 м
[Sc]
-11.7 -14.5 80 -20 -20 1005.0 1001.4
12 18.01 Ю 6 10 км слаб. снег 10 баллов -12.1 -14.1 85 -21 -21 1005.0 1001.3 -11.7 1
15 18.01 Ю 5 10 км слаб. снег 10 баллов -11.0 -13.0 85 -19 -19 1005.0 1001.3
18 18.01 Ю 4 20 км позёмок 7 баллов -11.5 -13.5 85 -19 -19 1005.0 1001.3
21 18.01 Ю 5 10 км ливневой дождь 10 баллов -11.5 -14.2 80 -19 -19 1005.0 1001.3
00 19.01 Ю 4 10 км слаб. ливневой снег 10/10 600 м
[Cb cap]
-11.3 -14.1 80 -18 -18 1001.7 998.1 -11.5 2 67
03 19.01 Ю 3 10 км слаб. ливневой снег 10 баллов -10.8 -13.6 80 -17 -17 1000.9 997.3
06 19.01 Ю 3 10 км слаб. ливневой снег 10 баллов -11.4 -13.4 85 -17 -17 999.6 996.0
09 19.01 Ю 3 10 км ливневой снег 10 баллов -12.3 -14.3 85 -18 -18 997.0 993.3
12 19.01 Ю 3 10 км слаб. ливневой снег 10 баллов -12.0 -14.0 85 -18 -18 995.6 992.0 -10.6 3
15 19.01 Ю 3 10 км слаб. снег 10 баллов -12.9 -14.9 85 -19 -19 995.7 992.0
18 19.01 ЮЗ 3 10 км слаб. снег 10 баллов -13.2 -15.2 85 -19 -19 997.0 993.3
21 19.01 З 4 20 км слаб. снег 10 баллов -13.8 -15.8 85 -21 -21 999.7 996.0
00 20.01 ЮЗ 4 50 км 4 балла -15.9 -17.8 85 -24 -24 1002.4 998.7 -15.9 0.7
03 20.01 Ю 3 50 км 4 балла -18.5 -21.1 80 -26 -26 1003.8 1000.0 -18.5
06 20.01 Ю 3 50 км 6 баллов -18.4 -21.0 80 -26 -26 1003.8 1000.0
09 20.01 ЮЗ 1 20 км слаб. снег 10 баллов -18.4 -21.0 80 -21 -21 1005.1 1001.3
12 20.01 З 3 50 км 7 баллов -21.6 -24.1 80 -30 -30 1007.8 1004.0 -15.7 0.0
15 20.01 З 3 50 км 2 балла -25.0 -27.4 80 -34 -34 опасность
обморожения
1010.6 1006.7
18 20.01 З 1 50 км ясно -29.2 -31.5 80 -33 -33 опасность
обморожения
1014.7 1010.7
21 20.01 З 1 50 км 2 балла -31.0 -33.4 79 -35 -35 опасность
обморожения
1017.3 1013.3
00 21.01 штиль 0 50 км 2 балла -32.1 -34.4 80 -32 -32 опасность
обморожения
1021.4 1017.3 -32.4
03 21.01 штиль 0 50 км 4 балла -31.6 -33.9 80 -32 -32 опасность
обморожения
1022.7 1018.7
06 21.01 ЮВ 2 50 км 4 балла -32.4 -34.8 79 -40 -40 опасность
обморожения
1024.1 1020.0
09 21.01 В 2 50 км 7 баллов -30.5 -32.9 79 -38 -38 опасность
обморожения
1025.3 1021.3
12 21.01 В 2 50 км 7 баллов -32.8 -35.1 80 -41 -41 опасность
обморожения
1025.4 1021.3 -30.5
15 21.01 В 2 50 км 4 балла -32.9 -35.0 81 -41 -41 опасность
обморожения
1022.8 1018.7
18 21.01 В 3 50 км 6 баллов -30.1 -32.5 79 -40 -40 опасность
обморожения
1021.3 1017.3
00 22.01 В 4 50 км 10 баллов -22.4 -24.9 80 -32 -32 опасность
обморожения
1014.6 1010.7 -32.9
03 22.01 В 4 10 км слаб. снег 10 баллов -21.5 -24.0 80 -31 -31 опасность
обморожения
1013.1 1009.3
06 22.01 ЮВ 6 4000 м слаб. снег 10 баллов -18.8 -20.7 85 -29 -29 1013.1 1009.3

 

Местоположение метеостанции Курейка (Красноярский край, Россия): широта 66.47 долгота 87.22 высота над уровнем моря 28 м.

В архиве по умолчанию представлена погода в Курейке за последнюю неделю. Архивные данные за месяц целиком и за предыдущие месяцы, начиная с января 2011 года, Вы можете получить, выбрав интересующий диапазон дат из раскрывающегося списка и нажав кнопку "Ввод!".


*Определитесь, кто Вы:
робот инопланетянин человек

Внимание! Время в таблицах - всемирное. Для получения местного времени необходимо прибавить поправку, которая равна 7 ч.

Смотрите также архив погоды в соседних городах и на ближайших метеорологических станциях:

Погода в Светлогорске (Красноярский край, Россия) (75 км)
Погода в Туруханске (Красноярский край, Россия) (83 км)
Погода в Игарке (Красноярский край, Россия) (115 км)
Погода в Горбиачине (Красноярский край, Россия) (115 км)
Погода в Советской Речке (Красноярский край, Россия) (156 км)
Погода в Большом Пороге (Эвенкия, Россия) (158 км)
Погода в Снежногорске (Красноярский край, Россия) (183 км)
Погода в Красноселькупске (Ямало-Ненецкий АО, Россия) (231 км)
Погода в Потапово (Красноярский край, Россия) (248 км)
Погода в Верещагино (Красноярский край, Россия) (249 км)

Пояснения к столбцам:

Ветер - указаны скорость ветра в м/с - средняя за 10 мин, порывы в срок и между сроками (в фигурных скобках) и направление, откуда дует ветер: С - северный, СВ - северо-восточный, В - восточный, ЮВ - юго-восточный, Ю - южный, ЮЗ - юго-западный, З - западный, СЗ - северо-западный.
Видимость - горизонтальная дальность видимости в метрах или километрах. При видимости от 1 до 10 км при отсутствии осадков обычно наблюдается дымка, при ухудшении видимости до 1 км и менее - туман. В сухую погоду видимость может ухудшаться дымом, пылью или мглою.
Явления - указаны атмосферные явления, наблюдавшиеся в срок или в последний час перед сроком; фигурными скобками обозначены явления, наблюдавшиеся между сроками (за 1-3 часа до срока); квадратными скобками обозначены град или гололедные отложения с указанием их диаметра в мм.
Облачность - указаны через наклонную черту общая и нижняя облачность в баллах и высота нижней границы облаков в метрах; квадратными скобками обозначены формы облаков: Ci - перистые, Cs - перисто-слоистые, Cc - перисто-кучевые, Ac - высококучевые, As - высокослоистые, Sc - слоисто-кучевые, Ns - слоисто-дождевые, Cu - кучевые, Cb - кучево-дождевые. Подробнее классификацию облаков см. в Атласе облаков (PDF).
T - Температура воздуха - температура, измеренная на высоте 2 м над землей.
Td - Температура точки росы - температура, при понижении до которой содержащийся в воздухе водяной пар достигнет насыщения.
f - Относительная влажность воздуха - влажноcть воздуха, измеренная на высоте 2 м над землей.
Te - Эффективная температура - температура, которую ощущает одетый по сезону человек в тени. Характеристика душности погоды. При расчете учитывается влияние влажности воздуха и скорости ветра на теплоощущения человека.
Tes - Эффективная температура на солнце - температура, которую ощущает человек, с поправкой на солнечный нагрев. Характеристика знойности погоды. Зависит от высоты солнца над горизонтом, облачности и скорости ветра. Ночью, в пасмурную погоду, а также при ветре 12 м/с и более поправка равна нулю.
P - Атмосферное давление - приведенное к уровню моря атмосферное давление.
Po - Атмосферное давление - измеренное на уровне метеостанции атмосферное давление.
Tmin - Минимальная температура - минимум температуры воздуха на высоте 2 м над землей.
Tmax - Максимальная температура - максимум температуры воздуха на высоте 2 м над землей.
R - Количество осадков - Количество выпавших осадков за период времени, мм. При наведении курсора мыши на число - период времени, за который выпало указанное количество осадков.
R24 - Количество осадков - Количество выпавших осадков за 24 часа, мм.
S - Снежный покров - Высота снежного покрова, см. При наведении курсора мыши на число - состояние снежного покрова и степень покрытия местности в баллах.